Back to catalog

STARLINK-4215

AliveCommunicationsVLEO
NORAD 53007·PAYLOAD·🇺🇸 United States

Launched Jul 7, 2022 from Cape Canaveral Space Force Station

Loading…

Next Passes (next 24 hours)

TLE

FreshSource: CelesTrak SupGP

Epoch: Sep 14, 2026, 21:15 UTC

1 53007C 22076X   26257.88590278 -.00010292  00000+0 -29461-3 0  2578
2 53007  53.1582 310.6933 0001201  86.5484 267.0377 15.35387650    11

Track STARLINK-4215 in real time with AllMySat

Download on the App Store